[[{"header":{"parameterUnit":"m.s-1","parameterCategory":1,"la1":30.2991,"la2":30.254,"lo1":-89.0895,"lo2":-89.0444,"dy":0.0017,"dx":0.0017,"nx":28,"ny":28,"refTime":"2024-03-08T03:00:00:Z","depth":0,"parameterNumber":2,"parameterNumberName":"U-component_of_WINDS"},"data":[0,0,0,0,0,0,0,0,0,0,0,0,0,0,0,0,0,0,0,0,0,0,0,0,0,0,0,0,0,0,0,0,0,0,0,0,0,0,0,0,0,0,0,0,0,0,0,0,0,0,0,0,0,0,0,0,0,0,-5.6287,-5.6287,0,-5.6273,-5.6273,-5.6273,-5.6164,-5.6161,-5.6158,-5.6156,-5.6141,-5.6143,-5.6146,0,0,0,0,0,0,0,0,0,0,0,0,0,-5.6219,-5.6221,-5.6287,-5.6287,-5.6287,-5.6273,-5.6273,-5.6273,-5.6164,-5.6161,-5.6157,-5.6154,-5.6141,-5.6143,-5.6146,0,0,0,0,0,0,0,0,0,0,0,0,0,-5.6232,-5.6222,-5.6287,-5.6231,-5.6225,-5.6273,-5.6273,-5.6273,-5.6165,-5.6161,-5.6157,-5.6153,-5.614,-5.6143,-5.6146,-5.6247,0,0,-5.6156,-5.6157,0,0,0,0,0,0,0,0,-5.6231,-5.6234,-5.6239,-5.6235,-5.6229,-5.6216,-5.6244,-5.6264,-5.6166,-5.6188,-5.6156,-5.6151,-5.6169,-5.617,-5.6176,-5.6246,-5.6246,-5.6156,-5.6158,-5.6159,-5.616,0,0,0,0,0,0,0,-5.623,-5.6234,-5.6281,-5.6239,-5.6233,-5.6206,-5.6204,-5.6247,-5.6201,-5.6186,-5.6178,-5.6178,-5.6166,-5.6173,-5.6175,-5.6245,-5.6156,-5.6159,-5.6161,-5.6162,-5.6398,-5.6402,0,0,0,0,0,0,-5.6237,-5.6234,-5.6282,-5.6281,-5.622,-5.6211,-5.6208,-5.6224,-5.6201,-5.6193,-5.6181,-5.6172,-5.617,-5.6171,-5.6174,-5.6289,-5.6159,-5.6162,-5.6164,-5.6393,-5.6399,-5.6403,0,0,0,0,0,0,-5.6236,-5.6243,-5.6282,-5.6255,-5.6258,-5.6216,-5.6236,-5.6226,-5.6233,-5.6197,-5.6188,-5.6197,-5.6167,-5.617,-5.623,-5.6287,-5.6164,-5.6167,-5.6388,-5.6395,-5.6401,-5.6522,0,0,0,0,0,0,-5.6235,-5.6243,-5.628,-5.6257,-5.626,-5.6338,-5.6239,-5.6229,-5.6239,-5.6228,-5.621,-5.6203,-5.6164,-5.6225,-5.6233,-5.629,-5.6169,-5.6383,-5.6391,-5.6399,-5.6513,-5.6532,-5.6548,0,0,0,0,0,-5.6233,-5.6315,-5.6283,-5.6289,-5.6306,-5.6342,-5.6343,-5.6297,-5.6244,-5.6282,-5.6259,-5.6204,-5.6281,-5.6233,-5.624,-5.6299,-5.6379,-5.6389,-5.6398,-5.6505,-5.6528,-5.6548,0,0,0,0,0,0,-5.6344,-5.631,-5.6274,-5.6351,-5.6351,-5.6323,-5.6368,-5.6323,-5.6336,-5.6325,-5.6267,-5.6264,-5.6333,-5.6322,-5.6269,-5.6395,-5.632,-5.6332,-5.6399,-5.6421,-5.6438,-5.6438,-5.6172,0,0,0,0,0,-5.6379,-5.641,-5.6379,-5.645,-5.6451,-5.6411,-5.6424,-5.6389,-5.6385,-5.6384,-5.6365,-5.6364,-5.6387,-5.6404,-5.6424,-5.6512,-5.6506,-5.6556,-5.6574,-5.6589,-5.6599,-5.6644,-5.6666,-5.6435,-5.6435,-5.6435,0,0,-5.6448,-5.6433,-5.6457,-5.6472,-5.6467,-5.6501,-5.641,-5.645,-5.6474,-5.6389,-5.6444,-5.6432,-5.6426,-5.6501,-5.6532,-5.6494,-5.6662,-5.6602,-5.6614,-5.6615,-5.6656,-5.6678,-5.6698,-5.6442,-5.6441,-5.644,0,0,-5.6591,-5.6585,-5.6642,-5.664,-5.6634,-5.6607,-5.6621,-5.6601,-5.6589,-5.6644,-5.6581,-5.661,-5.6653,-5.6651,-5.6656,-5.6804,-5.6753,-5.6812,-5.6904,-5.6949,-5.6967,-5.6983,-5.7033,-5.7052,-5.6823,-5.6823,-5.6823,0,-5.6678,-5.6726,-5.6678,-5.6722,-5.673,-5.6657,-5.6715,-5.6715,-5.6716,-5.6724,-5.6681,-5.6734,-5.6725,-5.6798,-5.6834,-5.6841,-5.6855,-5.6812,-5.6968,-5.6984,-5.6998,-5.7045,-5.7065,-5.683,-5.6829,-5.6829,-5.6828,0,-5.6833,-5.6868,-5.6916,-5.6919,-5.6933,-5.6985,-5.6944,-5.6965,-5.6929,-5.6907,-5.6964,-5.6952,-5.6968,-5.6984,-5.6949,-5.7052,-5.7028,-5.6979,-5.6901,-5.7027,-5.7071,-5.7089,-5.684,-5.6838,-5.6836,-5.6834,0,0,-5.7041,-5.702,-5.7038,-5.7039,-5.7029,-5.7054,-5.7104,-5.712,-5.7138,-5.7143,-5.7181,-5.7221,-5.7175,-5.7181,-5.7146,-5.7186,-5.7302,-5.7131,-5.713,-5.7161,-5.7413,-5.7448,-5.747,-5.727,-5.7274,-5.7276,-5.7413,0,-5.7177,-5.7258,-5.7217,-5.7303,-5.7335,-5.7268,-5.731,-5.7309,-5.7291,-5.7315,-5.7295,-5.7323,-5.7261,-5.7264,-5.7301,-5.728,-5.7351,-5.727,-5.7304,-5.7306,-5.7304,-5.7493,-5.753,-5.7659,-5.743,-5.7432,-5.7435,0,-5.7345,-5.7358,-5.7447,-5.7432,-5.7444,-5.7482,-5.7495,-5.752,-5.7517,-5.7501,-5.751,-5.7466,-5.7513,-5.7441,-5.7504,-5.745,-5.7462,-5.7455,-5.7459,-5.7457,-5.7375,-5.7494,-5.7699,-5.7717,-5.7461,-5.7459,-5.7457,0,-5.7486,-5.7525,-5.7583,-5.7587,-5.7571,-5.76,-5.7595,-5.7589,-5.7602,-5.7614,-5.7621,-5.7639,-5.7648,-5.7662,-5.7625,-5.7576,-5.7693,-5.7618,-5.768,-5.7681,-5.7704,-5.7702,-5.7911,-5.7719,-5.7718,-5.7718,-5.7717,0,-5.7639,-5.7696,-5.7646,-5.7682,-5.7744,-5.7698,-5.7761,-5.7748,-5.7744,-5.7776,-5.7721,-5.7752,-5.7703,-5.773,-5.7702,-5.7758,-5.7763,-5.775,-5.7741,-5.7753,-5.7755,-5.7757,-5.7746,-5.7723,-5.7722,-5.7721,-5.772,0,-5.7804,-5.7774,-5.7833,-5.7815,-5.7812,-5.7858,-5.7842,-5.7874,-5.7854,-5.7895,-5.7903,-5.787,-5.7899,-5.7865,-5.789,-5.7871,-5.7947,-5.7927,-5.7948,-5.794,-5.8004,-5.7997,-5.8219,-5.8245,-5.8039,-5.8041,-5.8043,0,-5.7902,-5.7945,-5.7932,-5.795,-5.7948,-5.7978,-5.7991,-5.7949,-5.7965,-5.7968,-5.8,-5.8024,-5.8041,-5.8091,-5.8069,-5.8089,-5.8066,-5.8143,-5.8068,-5.8079,-5.8064,-5.8061,-5.8064,-5.8157,-5.8159,-5.8161,-5.8163,0,-5.8079,-5.8063,-5.8084,-5.8102,-5.812,-5.8131,-5.8138,-5.8156,-5.8113,-5.8134,-5.8163,-5.8177,-5.8204,-5.8228,-5.8243,-5.8237,-5.8193,-5.8188,-5.8202,-5.8213,-5.8222,-5.8215,-5.7985,-5.8181,-5.8179,-5.8178,-5.8177,-5.8176,-5.8212,-5.8246,-5.8243,-5.8269,-5.8271,-5.828,-5.8309,-5.8293,-5.8317,-5.8335,-5.831,-5.8346,-5.8345,-5.8359,-5.836,-5.8387,-5.8354,-5.8377,-5.8382,-5.8387,-5.8395,-5.8221,-5.839,-5.839,-5.8389,-5.8389,-5.8388,0,-5.8383,-5.8379,-5.8404,-5.8416,-5.8437,-5.8396,-5.8403,-5.8423,-5.8455,-5.8458,-5.8477,-5.8511,-5.8535,-5.8517,-5.8538,-5.8563,-5.8543,-5.857,-5.8565,-5.8565,-5.8425,-5.8409,-5.8586,-5.8586,-5.8586,-5.8586,-5.8585,-5.8585,-5.8474,-5.853,-5.8514,-5.857,-5.8565,-5.8601,-5.8608,-5.8616,-5.8618,-5.8658,-5.8678,-5.8667,-5.8662,-5.8682,-5.8703,-5.8697,-5.8706,-5.8739,-5.8726,-5.8594,-5.8575,-5.8556,-5.854,-5.8742,-5.8742,-5.8863,-5.8864,-5.8865]},{"header":{"parameterUnit":"m.s-1","parameterCategory":1,"la1":30.2991,"la2":30.254,"lo1":-89.0895,"lo2":-89.0444,"dy":0.0017,"dx":0.0017,"nx":28,"ny":28,"refTime":"2024-03-08T03:00:00:Z","depth":0,"parameterNumber":3,"parameterNumberName":"V-component_of_WINDS"},"data":[0,0,0,0,0,0,0,0,0,0,0,0,0,0,0,0,0,0,0,0,0,0,0,0,0,0,0,0,0,0,0,0,0,0,0,0,0,0,0,0,0,0,0,0,0,0,0,0,0,0,0,0,0,0,0,0,0,0,1.7392,1.7392,0,1.7391,1.7391,1.7391,1.7366,1.7365,1.7364,1.7364,1.736,1.736,1.7361,0,0,0,0,0,0,0,0,0,0,0,0,0,1.7373,1.7373,1.7392,1.7392,1.7392,1.7391,1.7391,1.7391,1.7366,1.7365,1.7364,1.7363,1.736,1.736,1.7361,0,0,0,0,0,0,0,0,0,0,0,0,0,1.7377,1.7373,1.7392,1.7379,1.7378,1.7391,1.7391,1.7391,1.7366,1.7365,1.7364,1.7363,1.7359,1.736,1.7361,1.7385,0,0,1.7363,1.7364,0,0,0,0,0,0,0,0,1.7377,1.7378,1.7381,1.738,1.7379,1.7378,1.7383,1.7389,1.7366,1.737,1.7364,1.7362,1.7366,1.7366,1.7368,1.7385,1.7385,1.7363,1.7364,1.7364,1.7364,0,0,0,0,0,0,0,1.7377,1.7378,1.7392,1.7381,1.738,1.7374,1.7374,1.7384,1.7374,1.737,1.7368,1.7369,1.7365,1.7368,1.7368,1.7385,1.7363,1.7364,1.7364,1.7365,1.7426,1.7428,0,0,0,0,0,0,1.7378,1.7378,1.7392,1.7392,1.7376,1.7375,1.7375,1.7379,1.7374,1.7372,1.7369,1.7367,1.7367,1.7367,1.7368,1.7399,1.7364,1.7365,1.7365,1.7425,1.7427,1.7428,0,0,0,0,0,0,1.7378,1.738,1.7392,1.7384,1.7386,1.7377,1.7382,1.738,1.7382,1.7373,1.7371,1.7373,1.7366,1.7367,1.7382,1.7398,1.7365,1.7366,1.7424,1.7426,1.7427,1.746,0,0,0,0,0,0,1.7378,1.738,1.7389,1.7385,1.7386,1.7406,1.7383,1.738,1.7383,1.7381,1.7377,1.7375,1.7365,1.7381,1.7383,1.7399,1.7366,1.7422,1.7425,1.7427,1.7457,1.7462,1.7467,0,0,0,0,0,1.7377,1.7396,1.7389,1.7391,1.7397,1.7407,1.7408,1.7397,1.7385,1.7394,1.7389,1.7375,1.7397,1.7383,1.7385,1.7401,1.7421,1.7424,1.7427,1.7455,1.7461,1.7467,0,0,0,0,0,0,1.7399,1.7395,1.7387,1.7406,1.7408,1.7403,1.7414,1.7404,1.7408,1.7405,1.7391,1.7391,1.7409,1.7406,1.7392,1.7427,1.7407,1.741,1.7428,1.7434,1.7438,1.7439,1.7367,0,0,0,0,0,1.7407,1.7416,1.7412,1.7429,1.743,1.7422,1.7426,1.7419,1.7419,1.7419,1.7415,1.7416,1.7424,1.7428,1.7434,1.7457,1.7457,1.7469,1.7474,1.7478,1.7481,1.7496,1.7502,1.7437,1.7437,1.7437,0,0,1.7422,1.7421,1.7427,1.7433,1.7433,1.7444,1.7423,1.7433,1.7442,1.742,1.7436,1.7434,1.7434,1.7454,1.7463,1.7453,1.75,1.7481,1.7485,1.7485,1.75,1.7506,1.7512,1.7438,1.7438,1.7438,0,0,1.7455,1.7454,1.747,1.7472,1.7473,1.7469,1.7473,1.7471,1.7469,1.7485,1.7471,1.748,1.7492,1.7494,1.7497,1.7536,1.7524,1.7538,1.7563,1.7578,1.7584,1.7588,1.7604,1.761,1.7541,1.7541,1.7541,0,1.7472,1.7488,1.7478,1.7492,1.7497,1.7481,1.7498,1.75,1.7503,1.7506,1.7495,1.7513,1.7512,1.7534,1.7545,1.7546,1.7552,1.7538,1.7584,1.7588,1.7592,1.7608,1.7614,1.7543,1.7543,1.7543,1.7543,0,1.7511,1.7523,1.7535,1.7542,1.7547,1.7562,1.7556,1.7563,1.7557,1.7554,1.7572,1.7571,1.7578,1.7583,1.7574,1.7605,1.7599,1.7586,1.7566,1.7601,1.7615,1.7621,1.7546,1.7545,1.7545,1.7544,0,0,1.7555,1.756,1.7564,1.7569,1.7572,1.7581,1.7597,1.7606,1.7613,1.7617,1.7631,1.7644,1.7634,1.7637,1.7629,1.7643,1.7677,1.7628,1.7628,1.7639,1.7714,1.7725,1.7732,1.767,1.7671,1.7672,1.7715,0,1.7588,1.7616,1.761,1.7637,1.7649,1.7637,1.7651,1.7655,1.7654,1.7664,1.7662,1.7673,1.7657,1.766,1.7672,1.767,1.7692,1.7667,1.7683,1.7684,1.7685,1.7739,1.7749,1.7789,1.772,1.7721,1.7722,0,1.763,1.7639,1.7668,1.7673,1.7678,1.7691,1.7701,1.7711,1.7716,1.7715,1.7721,1.7712,1.7729,1.771,1.7734,1.7717,1.7724,1.7725,1.7726,1.7727,1.7705,1.7743,1.7802,1.7809,1.773,1.7729,1.7729,0,1.7662,1.768,1.7701,1.7705,1.7711,1.7721,1.7724,1.7729,1.7736,1.7745,1.775,1.776,1.7766,1.7775,1.777,1.7756,1.7796,1.7775,1.7796,1.7797,1.7805,1.7805,1.7867,1.7808,1.7808,1.7808,1.7808,0,1.77,1.7718,1.7716,1.7729,1.7751,1.7745,1.7767,1.7768,1.7774,1.7788,1.7777,1.779,1.7783,1.7796,1.7792,1.7815,1.7816,1.7817,1.7815,1.7818,1.7818,1.7822,1.782,1.7809,1.7809,1.7809,1.7809,0,1.7738,1.7737,1.776,1.7766,1.7768,1.7784,1.7789,1.7802,1.7801,1.7819,1.7823,1.7822,1.7838,1.7834,1.785,1.7848,1.7877,1.7871,1.7875,1.7875,1.7897,1.7895,1.7965,1.7975,1.7908,1.7908,1.7909,0,1.7763,1.7777,1.7786,1.7796,1.78,1.7815,1.7824,1.782,1.7829,1.784,1.7852,1.7867,1.7878,1.7904,1.7904,1.7918,1.7913,1.7937,1.7915,1.7919,1.7916,1.7916,1.7918,1.7941,1.7942,1.7943,1.7943,0,1.7807,1.7808,1.7821,1.7835,1.7847,1.7857,1.7867,1.7875,1.7872,1.7884,1.7901,1.791,1.7929,1.7945,1.7958,1.7961,1.7953,1.7951,1.7956,1.7959,1.7962,1.7963,1.7889,1.7949,1.7948,1.7948,1.7947,1.7947,1.7841,1.7855,1.7865,1.7881,1.7889,1.7899,1.7913,1.7916,1.793,1.7946,1.7943,1.7963,1.7972,1.7989,1.7995,1.8011,1.8002,1.801,1.8012,1.8014,1.8018,1.796,1.8013,1.8012,1.8012,1.8012,1.8012,0,1.7886,1.7893,1.7909,1.7924,1.7938,1.7931,1.7943,1.7954,1.7972,1.7982,1.7995,1.8017,1.8033,1.8037,1.8053,1.8065,1.8062,1.807,1.8069,1.8071,1.8024,1.8018,1.8072,1.8072,1.8072,1.8072,1.8072,1.8072,1.7912,1.7937,1.7939,1.7969,1.7975,1.7996,1.8004,1.8014,1.8022,1.8047,1.8062,1.8065,1.8073,1.8091,1.8106,1.8107,1.8114,1.8124,1.8123,1.8079,1.8073,1.8068,1.8062,1.8125,1.8125,1.8169,1.8169,1.817]}]]